Flag for Canada Weather past 2 weeks in Fort Smith, Northwest Territories, Canada

Now
73 °F

Broken clouds.


Feels Like: 77 °F
Forecast: 52 / 74 °F
Wind: 2 mph from North

Location: Fort Smith

Current Time: Aug 3, 2015 at 10:17:43 PM

Latest Report: Aug 3, 2015 at 9:00 PM


Visibility: 15 mi

Pressure: 29.99 "Hg

Humidity: 31%

Dew point: 41 °F

Location of Fort SmithLocation

Historic Weather in Fort Smith — Graph

°F

Fort Smith temperature yesterday

Maximum temperature yesterday: 75 °F (at 3:00 PM)
Minimum temperature yesterday: 52 °F (at 2:00 AM)
Average temperature yesterday: 65 °F

Past Weeks' High & Low Weather Summary

 TemperatureHumidityPressure
High77 °F (Jul 24, 5:00 PM)100% (Jul 21, 10:00 PM)30.02 "Hg (Jul 21, 10:00 PM)
Low45 °F (Jul 24, 3:00 AM)22% (Aug 3, 4:00 PM)29.56 "Hg (Jul 22, 4:00 PM)
Average62 °F71%29.81 "Hg
* Reported Jul 19 9:00 PM — Aug 3 9:00 PM, Fort Smith, Weather by CustomWeather, © 2015

Note: Actual official high and low records may vary slightly from our data, if they occured in-between our weather recording intervals... More about our weather records

Advertising

Fort Smith weather history for previous 24 hours

 ConditionsComfort  
Time TempWeatherWind HumidityBarometerVisibility
9:00 PM
Mon, Aug 3
73 °FBroken clouds.2 mph31%29.99 "Hg15 mi
8:00 PM75 °FBroken clouds.3 mph27%29.98 "Hg15 mi
7:00 PM77 °FPartly sunny.5 mph26%29.98 "Hg15 mi
6:00 PM77 °FPartly sunny.5 mph28%29.98 "Hg15 mi
5:00 PM75 °FBroken clouds.5 mph24%30.00 "Hg15 mi
4:00 PM75 °FBroken clouds.6 mph22%30.00 "Hg15 mi
3:00 PM75 °FBroken clouds.7 mph24%30.00 "Hg15 mi
2:00 PM75 °FBroken clouds.7 mph24%30.01 "Hg15 mi
1:00 PM73 °FPartly sunny.6 mph29%30.01 "Hg15 mi
12:00 PM72 °FBroken clouds.5 mph31%30.02 "Hg15 mi
11:00 AM68 °FPartly sunny.3 mph40%30.02 "Hg15 mi
10:00 AM66 °FPartly sunny.6 mph49%30.02 "Hg15 mi
9:00 AM64 °FBroken clouds.2 mph52%30.02 "Hg15 mi
8:00 AM61 °FBroken clouds.3 mph59%30.02 "Hg15 mi
7:00 AM59 °FPartly sunny.2 mph59%30.01 "Hg15 mi
6:00 AM57 °FPassing clouds.2 mph63%30.00 "Hg15 mi
5:00 AM55 °FPartly cloudy.2 mph67%30.00 "Hg15 mi
4:00 AM57 °FPassing clouds.No wind63%29.99 "Hg15 mi
3:00 AM59 °FPassing clouds.2 mph59%29.98 "Hg15 mi
2:00 AM59 °FPassing clouds.2 mph63%29.98 "Hg15 mi
1:00 AM63 °FPassing clouds.2 mph52%29.98 "Hg15 mi
12:00 AM63 °FPassing clouds.3 mph49%29.97 "Hg15 mi
11:00 PM
Sun, Aug 2
59 °FPartly cloudy.No wind63%29.97 "Hg15 mi
10:00 PM64 °FBroken clouds.2 mph43%29.96 "Hg15 mi
Weather by CustomWeather, © 2015

See weather overviewHow to use our weather pages